This is the latest recevied weather packets stored in our database for station/object K5NWZ. If no packets are shown the sender has not sent any weather packets the latest 10 day(s).
| Time | Temp. | Humidity | Pressure | Rain* | Wind** | Luminosity | Snow |
|---|---|---|---|---|---|---|---|
| 1788085362 | 19.44° C | 56% | 1025.9 hPa | 0 mm | - | 0 W/m² | - |
| 1788085058 | 19.44° C | 56% | 1025.6 hPa | 0 mm | - | 0 W/m² | - |
| 1788084753 | 19.44° C | 58% | 1025.8 hPa | 0 mm | - | 0 W/m² | - |
| 1788084451 | 19.44° C | 59% | 1026.3 hPa | 0 mm | - | 0 W/m² | - |
| 1788084146 | 19.44° C | 59% | 1026 hPa | 0 mm | - | 0 W/m² | - |
| 1788083845 | 19.44° C | 58% | 1026.1 hPa | 0 mm | - | 0 W/m² | - |
| 1788083542 | 19.44° C | 58% | 1025.9 hPa | 0 mm | - | 0 W/m² | - |
| 1788083237 | 19.44° C | 57% | 1025.9 hPa | 0 mm | - | 0 W/m² | - |
| 1788082933 | 19.44° C | 57% | 1025.9 hPa | 0 mm | - | 0 W/m² | - |
| 1788082628 | 19.44° C | 57% | 1025.6 hPa | 0 mm | - | 0 W/m² | - |
| 1788082324 | 20° C | 57% | 1025.9 hPa | 0 mm | - | 0 W/m² | - |
| 1788082023 | 20° C | 56% | 1025.8 hPa | 0 mm | - | 0 W/m² | - |
| 1788081721 | 20° C | 54% | 1025.6 hPa | 0 mm | - | 0 W/m² | - |
| 1788081416 | 20° C | 54% | 1025.9 hPa | 0 mm | - | 0 W/m² | - |
| 1788081114 | 20° C | 54% | 1025.8 hPa | 0 mm | - | 0 W/m² | - |
| 1788080809 | 20° C | 53% | 1025.8 hPa | 0 mm | - | 0 W/m² | - |
| 1788080505 | 20.56° C | 51% | 1025.6 hPa | 0 mm | - | 0 W/m² | - |
| 1788080204 | 20.56° C | 52% | 1025.6 hPa | 0 mm | - | 0 W/m² | - |
| 1788079900 | 20.56° C | 50% | 1025.6 hPa | 0 mm | - | 0 W/m² | - |
| 1788079601 | 20° C | 53% | 1025.9 hPa | 0 mm | - | 0 W/m² | - |
| 1788079296 | 20° C | 54% | 1025.9 hPa | 0 mm | - | 0 W/m² | - |
| 1788078991 | 20° C | 54% | 1025.9 hPa | 0 mm | - | 0 W/m² | - |
| 1788078686 | 20° C | 54% | 1025.9 hPa | 0 mm | - | 0 W/m² | - |
| 1788078381 | 20° C | 53% | 1025.9 hPa | 0 mm | - | 0 W/m² | - |
| 1788078077 | 20° C | 53% | 1025.9 hPa | 0 mm | - | 0 W/m² | - |
* Rain latest hour (hover to see other rain measurements)
** Current wind speed in m/s (hover to see current wind gust speed)